{"data":{"norad_id":68172,"intl_designator":"2026-050F","name":"STARLINK-37031","alt_names":[],"object_type":"PAYLOAD","status":"ACTIVE","operator":null,"country":"US","launch_date":"2026-03-14","launch_site_code":"AFETR","launch_vehicle":null,"mission":null,"orbit_class":"UNKNOWN","rcs_meters":null,"size_class":null,"mass_kg":null,"dimensions":null,"purposes":["comms"],"wikipedia_slug":null,"has_3d_model":false,"image_url":null,"decayed_at":null,"tle_current":{"epoch":"2026-09-19T20:11:21.483168Z","epoch_age_seconds":113066,"freshness":"FRESH","line1":"1 68172U 26050F   26262.84122087  .00024627  00000+0  73748-3 0  9999","line2":"2 68172  53.1577  81.0361 0002095  69.7610 290.3617 15.34404910 30460","mean_motion":15.3440491,"eccentricity":0.0002095,"inclination_deg":53.1577,"raan_deg":81.0361,"arg_perigee_deg":69.761,"mean_anomaly_deg":290.3617,"bstar":0.00073748,"rev_number":3046,"period_min":93.847457774363,"perigee_km":461.2554937183,"apogee_km":464.12179966427,"semimajor_km":6840.8256466913,"source":"CELESTRAK","updated_at":"2026-09-20T09:00:43.799442Z"}}}